Regional Weather Roundup
Issued by NWS Glasgow, MT

Home | Current Version | Previous Version | Text Only | Print | Product List | Glossary On
Versions: 1 2 3 4 5 6 7 8 9 10 11 12 13 14 15 16 17 18 19 20 21 22 23 24 25 26 27
000
ASUS45 KGGW 260315
RWRGGW
HOURLY REGIONAL WEATHER ROUNDUP FOR NORTHEAST MONTANA
NATIONAL WEATHER SERVICE GLASGOW MONTANA
900 PM MDT WED MAY 25 2016

NOTE: "FAIR" INDICATES FEW OR NO CLOUDS BELOW 12,000 FEET WITH NO
SIGNIFICANT WEATHER AND/OR OBSTRUCTIONS TO VISISBILITY.

NORTHEAST MONTANA


CITY           SKY/WX    TMP DP  RH WIND       PRES   REMARKS
GLASGOW        CLEAR     55  44  66 N9        29.82S
PLENTYWOOD       N/A     52  49  89 N8G16       N/A
WOLF POINT     CLOUDY    58  49  72 NE3       29.83R
JORDAN           N/A     56  45  66 W5        29.84R
WINNETT          N/A     50  43  77 SW8G38      N/A
SIDNEY         CLEAR     52  47  83 NW5       29.82S
GLENDIVE       PTCLDY    57  45  62 E3        29.86S
MALTA            N/A     57  46  66 SW7         N/A
SCOBEY           N/A     52  40  63 CALM      29.84R
OPHEIM           N/A     50  43  76 N2        29.69

FORT PECK REPORTS


CITY           SKY/WX    TMP DP  RH WIND       PRES   REMARKS
FORT PECK        N/A     57  45  64 NW7         N/A
THE PINES        N/A     60  41  49 SW1         N/A

SOUTHEAST MONTANA


CITY           SKY/WX    TMP DP  RH WIND       PRES   REMARKS
BILLINGS       CLOUDY    52  44  74 N17G23    29.90R
MILES CITY     PTCLDY    55  49  80 SW3       29.85S
BAKER          CLOUDY    57  44  62 CALM      29.86R
LIVINGSTON     CLOUDY    54  37  52 NW14G23   29.94R

CENTRAL MONTANA


CITY           SKY/WX    TMP DP  RH WIND       PRES   REMARKS
HAVRE            N/A    N/A N/A N/A MISG      29.87R
LEWISTOWN      CLOUDY    49  43  80 S9        29.91R
GREAT FALLS    CLOUDY    55  45  68 NW12      29.91R
CUT BANK         N/A     54  41  61 N7        29.91R
HELENA         CLOUDY    56  45  66 NE3       29.92R
BUTTE          PTCLDY    54  32  43 NW10      30.01R
BOZEMAN        CLOUDY    56  39  53 N9        29.95R

WESTERN MONTANA


CITY           SKY/WX    TMP DP  RH WIND       PRES   REMARKS
MISSOULA       MOCLDY    62  45  53 CALM      29.99R
KALISPELL      NOT AVBL

NORTH DAKOTA


CITY           SKY/WX    TMP DP  RH WIND       PRES   REMARKS
WILLISTON      CLEAR     49  46  90 N5        29.81F
DICKINSON      CLEAR     46  41  82 W5        29.81S
MINOT          CLOUDY    59  55  87 S5        29.75S
BISMARCK       CLOUDY    59  53  80 NW12      29.78S

SOUTHERN SASKATCHEWAN


CITY           SKY/WX    TMP DP  RH WIND       PRES   REMARKS
REGINA         LGT RAIN  54  52  94 N9        29.84F
MOOSE JAW      LGT RAIN  52  52 100 NW6       29.87S
ESTEVAN        LGT RAIN  55  54  94 NE12      29.78S FOG
SWIFT CURRENT  CLOUDY    52  48  87 E8        29.87R





USA.gov is the U.S. government's official web portal to all federal, state and local government web resources and services.